Weather in Ang Thong

Thailand     14°36′00″N   100°27′27″E
temp.,
°C
wind,
m/s
gust,
m/s
humid.,
%
clouds,
%
prec.,
mm/h
press.,
hPa
HPBL,
m
20 june, sun
sun2001:00+26sw497998 4.4 1008213
04:00+25sw258122 0.0 1007112
07:00+26sw257630 0.0 1008194
10:00+33w4648100 0.0 10091202
13:00+36w563953 0.0 10062036
16:00+36w763823 0.0 10042152
19:00+31w6105236 0.0 1005430
22:00+28wsw5116334 0.0 1007405
21 june, mon
mon2101:00+28sw5106999 0.1 1007366
04:00+27wsw497212 0.0 1006295
07:00+27wsw487146 0.0 1008387
10:00+33w55485 0.0 10081231
13:00+36w56395 0.0 10062114
16:00+36w783634 0.0 10032044
19:00+32w51049100 0.0 1004391
22:00+29wsw51160100 0.1 1007481
22 june, tue
tue2201:00+28sw5116396 0.1 1007489
04:00+26sw4107038 0.0 1006388
07:00+27sw497290 0.0 1008435
10:00+33w574929 0.0 10081288
13:00+36w563832 0.0 10062283
16:00+35w464294 0.1 1003713
19:00+30s61057100 0.1 1005458
22:00+29ssw4961100 0.0 1008357
23 june, wed
wed2301:00+28sw4116381 0.0 1007432
04:00+26sw41071100 0.0 1007363
07:00+27sw4972100 0.0 1009416
10:00+31wsw5752100 0.0 10091219
13:00+35wsw6743100 0.0 10061951
16:00+34sw5847100 0.2 1004584
19:00+29ssw51163100 0.3 1006390
22:00+28sw51064100 0.1 1008509
24 june, thu
thu2401:00+27sw51067100 0.1 1007491
04:00+26sw4970100 0.0 1006383
07:00+27ssw4872100 0.0 1007364
10:00+31wsw6756100 0.0 10081039
13:00+32w5651100 0.0 10061453
16:00+32sw895591 0.1 1004987
19:00+29wsw5106499 0.7 1005560
22:00+26sw41077100 0.0 1007537